Zurück zum Katalog

STARLINK-35215

AktivKommunikationSSO
NORAD 65813·PAYLOAD·🇺🇸 United States

Gestartet Sep 26, 2025 von Vandenberg Space Force Base

Loading…

Nächste Überflüge (nächste 24 Stunden)

TLE

AktuellSource: CelesTrak SupGP

Epoche: Sep 14, 2026, 14:19 UTC

1 65813C 25218Y   26257.59701389  .00029040  00000+0  90156-3 0  2570
2 65813  97.2841 115.0494 0001743  86.0934  77.8069 15.33421043    19

Verfolge STARLINK-35215 in Echtzeit mit AllMySat

Download on the App Store